Regional Weather Roundup
Issued by NWS Wakefield, VA

Home | Current Version | Previous Version | Graphics & Text | Print | Product List | Glossary Off
Versions: 1 2 3 4 5 6 7 8 9 10 11 12 13 14 15 16 17 18 19 20 21 22 23 24 25 26 27

000
ASUS41 KAKQ 312010
RWRAKQ

REGIONAL WEATHER ROUNDUP
NATIONAL WEATHER SERVICE WAKEFIELD VA
400 PM EDT FRI OCT 31 2014

Note: "fair" indicates few or no clouds below 12,000 feet with no
significant weather and/or obstructions to visibility. * = Denotes
station may not report precipitation (e.g., rain,snow,etc.),
thunder or fog.

VAZ042-051-052>054-056-312100-
NORTHERN VIRGINIA

CITY           SKY/WX    TMP DP  RH WIND       PRES   REMARKS
WASH NATIONAL  CLOUDY    57  33  40 NE7       29.88F
DULLES         CLOUDY    53  34  48 E6        29.87F
FORT BELVOIR   CLOUDY    55  34  45 E2        29.87F
QUANTICO       CLOUDY    57  35  43 VRB7      29.88F
FREDERICKSBRG* PTSUNNY   59  37  43 NE8       29.85F
STAFFORD*      CLOUDY    55  33  44 E7        29.90F
WARRENTON      CLOUDY    56  42  58 NE5       29.86F
CULPEPER*      CLOUDY    55  37  50 E3        29.86F
MANASSAS*      NOT AVBL
LEESBURG*      CLOUDY    54  37  54 SE3       29.88S
WINCHESTER     CLOUDY    54  32  43 CALM      29.85F
FRONT ROYAL*   CLOUDY    52  36  54 CALM      29.85S
LURAY*         CLOUDY    54  37  54 CALM      29.85F
$$

VAZ048-049-060>072-079>083-312100-
CENTRAL AND SOUTH CENTRAL VIRGINIA...AND NORTH CENTRAL NORTH CAROLINA

CITY           SKY/WX    TMP DP  RH WIND       PRES   REMARKS
RICHMOND       PTSUNNY   59  36  42 N8        29.84F
CHESTERFIELD*  CLOUDY    57  34  41 N7        29.84F
PETERSBURG*    PTSUNNY   58  35  42 N5        29.84F
HANOVER        CLOUDY    57  36  45 VRB5      29.86F
TAPPAHANNOCK*  CLOUDY    59  31  33 N7        29.86F
CHARLOTTSVILLE CLOUDY    55  35  47 E3        29.84F
ORANGE*        CLOUDY    55  37  50 CALM      29.87F
LOUISA*        CLOUDY    55  39  54 NE6       29.84S
FARMVILLE*     CLOUDY    57  36  44 CALM      29.83S
CREWE*         CLOUDY    56  37  49 NE3       29.84F
FORT PICKETT*  CLOUDY    56  39  52 N5        29.84S
LUNENBURG*     CLOUDY    57  40  53 N3        29.83F
SOUTH HILL*    CLOUDY    59  41  51 N5        29.89S
LAWRENCEVILLE* CLOUDY    58  41  54 CALM      29.83S
ROANOKE RAPIDS CLOUDY    57  41  54 N6        29.83S
RALEIGH        CLOUDY    59  41  51 N6        29.83F
$$

VAZ088>098-312100-
SOUTHEAST VIRGINIA

CITY           SKY/WX    TMP DP  RH WIND       PRES   REMARKS
NORFOLK        CLOUDY    57  41  55 N13       29.83F
VIRGINIA BEACH PTSUNNY   59  44  57 N14       29.81F
NORFOLK NAVAL  PTSUNNY   59  40  49 N15       29.85S
WEST POINT*    CLOUDY    60  35  39 NE3       29.86F
NEWPORT NEWS   CLOUDY    59  41  51 NE10      29.84S
LANGLEY AFB    CLOUDY    56  40  54 NE12      29.84S
FORT EUSTIS    CLOUDY    58  38  47 NE9       29.82F
WILLIAMSBURG*  SUNNY     59  43  55 N5        29.85S
HR EXEC AP*    CLOUDY    57  43  58 NE7       29.85F
FRANKLIN*      PTSUNNY   61  39  44 NE12      29.83S
WAKEFIELD      PTSUNNY   57  38  48 NE5       29.83F
$$

VAZ020-022-025-037-045-312100-
WEST CENTRAL AND SOUTHWEST VIRGINIA

CITY           SKY/WX    TMP DP  RH WIND       PRES   REMARKS
STAUNTON*      CLOUDY    51  35  52 CALM      29.85F
HOT SPRINGS VA CLOUDY    39  32  74 E3        29.78S
LYNCHBURG      CLOUDY    56  37  49 MISG      29.84F
DANVILLE       MOSUNNY   58  41  53 VRB3      29.84F
SOUTH BOSTON*  NOT AVBL
MARTINSVILLE   CLOUDY    55  42  61 CALM      29.85F
ROANOKE        CLOUDY    54  36  50 E9        29.83F
BLACKSBURG     CLOUDY    50  41  71 CALM      29.83S
DUBLIN*        RAIN      48  43  82 W7        29.83S
MARION*        LGT RAIN  43  40  86 W10       29.86S
HILLSVILLE*    CLOUDY    48  38  67 NW9       29.81S
RICHLANDS*     DRIZZLE   45  40  84 CALM      29.84S
WISE*          LGT RAIN  41  41 100 W6        29.85S
ABINGDON*      RAIN      45  41  86 W6        29.86S
$$

MDZ021>025-VAZ099-100-312100-
SOUTHERN MARYLAND AND THE DELMARVA PENINSULA

CITY           SKY/WX    TMP DP  RH WIND       PRES   REMARKS
PATUXENT RIVER MOSUNNY   57  32  38 N13       29.85F
BAY BRIDGE APT   N/A     55  32  41 N9        29.87F
LEONARDTOWN    MOSUNNY   54  32  43 CALM      29.88S
DOVER          CLOUDY    53  39  61 N10       29.85F
GEORGETOWN     CLOUDY    53  41  63 N9        29.86F
EASTON         MOSUNNY   57  36  44 N8        29.89F
CAMBRIDGE      SUNNY     59  32  36 N3        29.85F
SALISBURY      CLOUDY    57  38  48 N6        29.85F
OCEAN CITY     CLOUDY    54  41  61 N8        29.84F
WALLOPS ISLAND CLOUDY    54  38  54 N7        29.86R
ACCOMACK*      CLOUDY    55  36  47 N7        29.84F
$$

NCZ012>017-030>032-312100-
EASTERN NORTH CAROLINA

CITY           SKY/WX    TMP DP  RH WIND       PRES   REMARKS
ELIZABETH CITY PTSUNNY   62  48  60 N13       29.79F
AHOSKIE*       NOT AVBL
EDENTON*       CLOUDY    63  41  44 N10       29.79F
CURRITUCK*     CLOUDY    59  47  64 N14G22    29.81S HAZE
KILL DEVIL HLS CLOUDY    60  47  62 N6        29.76F
MANTEO         CLOUDY    60  48  64 N15       29.77F
CAPE HATTERAS  SUNNY     62  51  67 N9G22     29.74F
TARBORO*       PTCLDY    62  42  47 N5        29.82F
GOLDSBORO      MOSUNNY   64  46  51 N7        29.79F
WASHINGTON     PTSUNNY   63  42  46 NE8       29.79F
GREENVILLE     MOSUNNY   63  43  48 NE14      29.82F
NEW BERN       SUNNY     66  42  41 N12       29.79F
WILMINGTON     SUNNY     66  42  41 NW7       29.77F
$$

VAZ048-312100-
ELSEWHERE

CITY           SKY/WX    TMP DP  RH WIND       PRES   REMARKS
HARRISBURG PA  PTSUNNY   53  35  50 W3        29.87F
BALTIMORE      PTSUNNY   55  32  41 NE5       29.87F
ANNAPOLIS      SUNNY     55  34  45 N7        29.87F
ANDREWS AFB    PTSUNNY   53  34  49 NE5       29.87F
WILMINGTON DE  CLOUDY    53  37  54 NE12      29.89F
PHILADELPHIA   PTSUNNY   54  36  50 N8        29.89F
WILDWOOD NJ*   CLOUDY    54  39  58 NE6       29.86F
ATLANTIC CITY  CLOUDY    54  43  66 N10       29.86F
HENDERSON NC   CLOUDY    56  41  56 N5        29.84F
GREENSBORO     PTSUNNY   56  41  57 CALM      29.82F
ROCKY MOUNT    CLOUDY    61  41  47 N10       29.81F
FAYETTEVILLE   SUNNY     66  42  41 VRB6      29.80F
CHARLOTTE      CLOUDY    61  42  49 W3        29.82F
$$

VAZ100-312100-
MARINE

STATION/POSITION TIME  TEMP    WIND        PRES    WAVE   SWELL
                       AIR SEA DIR/SP/G            HT/PER HT/PER
                 (UTC) (F)     (DEG/KT/KT) (MB)    (FT/S) (FT/S)
44066 TX TWR #4  2000   58 64   50/ 17/ 21 1010.0F   3/ 4   2/ 8
CAPE MAY NJ      2000   54 64  350/  6/ 10 1010.3F
LEWES DE         2000   53 59   20/ 11/ 13 1010.5F
15NM E FENWICK I 2000   56 63              1009.7F   2/ 4
OCEAN-CITY-INLET 2000      61   10/ 10/ 13 1010.0F
WACHAPREAGUE VA  2000   54 60  360/  6/ 10 1010.6R
THOMAS POINT MD  2000   53 60   20/  9/ 13 1012.5F
GOOSES REEF MD   2000   54      20/  8/ 10 1012.0F
COVE POINT MD    2000   53     360/  8/ 11 1011.2F
SOLOMONS ISLAND  2000      62                N/A
BISHOPS HEAD MD  2000   57 60   20/  7/ 11 1010.1S
PINEY POINT MD   2000           50/  7/  9   N/A
POTOMAC MD       2000   55      20/ 10/ 14 1010.2F
CAMBRIDGE MD     2000   55 59   20/  7/ 10 1010.6F
LEWISETTA VA     2000   56 61   10/  7/ 10 1010.5S
RAPPAHANNOCK LGT 2000          360/ 14/ 17 1011.0R
STINGRAY PT      2000   55      20/ 12/ 16 1011.5S
YORK RVR RNG VA  2000   55      30/ 13/ 16 1010.0F
YORKTOWN VA      2000   56 63   40/ 11/ 14 1010.0F
JAMESTOWN VA     2000   57      50/  6/ 10   N/A
DOMINION TERM VA 2000   57      20/  9/ 13 1010.4F
KIPTOPEKE VA     2000      67   20/  9/ 14   N/A
CHES BAY BRIDGE  2000      63  350/ 18/ 21 1009.5R
CHESAPEAKE LGHT  1900   57      10/ 23/ 25 1009.7F
WILLOUBY STN VA  2000   55      20/ 14/ 16 1008.9F
S CRANEY ISL VA  2000          350/ 12/ 15 1010.0S
CAPE HENRY BUOY  1900      65                N/A     4/ 5
1ST LANDING BUOY 2000   58     360/ 16/ 17 1009.5F
CAPE CHARLES BUO 2000      65                N/A     4/ 5   2/11
64NM E OF VA BCH 2000   60 66   10/ 21/ 25 1007.1S   5/ 6
DUCK PIER NC     2000   60 65   10/ 13/ 16 1007.5R
44100 DUCK FRF   2000      67                N/A     4/ 4
OREGON INLET NC  2000   61 65  350/ 12/ 17 1007.8F
HATTERAS NC      2000      64  360/ 21/ 25 1007.5F
DIAMOND SHLS NC  2000   64     340/ 21/ 29 1006.4S   6/ 7   2/ 9
CAPE LOOKOUT NC  1900   62      10/ 14/ 17 1008.0F
$$



USA.gov is the U.S. government's official web portal to all federal, state and local government web resources and services.